Miscellaneous Local Product
Issued by NWS North Platte, NE

Home | Current Version | Previous Version | Graphics & Text | Print | Product List | Glossary On
Versions: 1 2 3 4 5 6 7 8 9 10 11 12 13 14 15 16 17 18 19 20 21 22 23 24 25 26 27 28 29 30 31 32 33 34 35 36 37 38 39 40 41 42 43 44 45 46 47 48 49 50
000
AXUS43 KLBF 300110
MISLBF


WESTERN AND NORTH CENTRAL NEBRASKA HOURLY WEATHER ROUNDUP
NATIONAL WEATHER SERVICE NORTH PLATTE NE
800 PM CDT FRI APR 29 2016

NOTE: "FAIR" INDICATES FEW OR NO CLOUDS BELOW 12,000 FEET WITH NO
SIGNIFICANT WEATHER AND/OR OBSTRUCTIONS TO VISIBILITY.

NOTE: STATIONS NOT REPORTING VARIABLES SUCH AS SKY/WEATHER OR
PRESSURE ARE PROVIDED BY RAWS AND APRS NETWORKS AND ARE NOT UNDER
NATIONAL WEATHER SERVICE QUALITY CONTROL.

...OBSERVATIONS IN AND NEAR THE EASTERN PANHANDLE OF NEBRASKA...

CITY           SKY/WX    TMP DP  RH WIND       PRES   REMARKS
PINE RIDGE     CLOUDY    39  34  82 E9        29.99R WCI  33
CHADRON        CLOUDY    42  35  76 NE12      29.98S
ALLIANCE       LGT SNOW  35  33  92 NE8       29.94F FOG     WCI  29
SIDNEY         SNOW      33  31  92 N9        29.91F VSB 1/2 WCI  25
CRESCENT LAKE    N/A     35  34  97 NE8         N/A  WCI  28
$$

...OBSERVATIONS IN NORTHERN NEBRASKA AND FAR SOUTHERN SOUTH DAKOTA...

CITY           SKY/WX    TMP DP  RH WIND       PRES   REMARKS
WINNER         CLOUDY    45  38  76 E12       30.03S
VALENTINE      CLOUDY    40  37  89 E10       30.01R FOG     WCI  33
THEDFORD       DRIZZLE   40  38  91 NE14      29.95F WCI  33
AINSWORTH      LGT RAIN  40  39  97 NE14      30.01R WCI  32
O`NEILL        CLOUDY    42  40  95 E9        30.00R FOG
ORD            CLOUDY    42  39  89 E10       29.95R
BROKEN BOW     CLOUDY    41  38  89 NE17      29.93S
VALENTINE NWR    N/A     39  37  91 E12         N/A  WCI  32
BUTTE            N/A     41  39  93 NE8         N/A
HALSEY           N/A     40  37  89 NE7G15      N/A
CHAMBERS         N/A     42  40  94 E8          N/A
EWING            N/A     42  40  94 E9          N/A
$$

...OBSERVATIONS IN SOUTHWEST NEBRASKA AND FAR NORTHEAST COLORADO...

CITY           SKY/WX    TMP DP  RH WIND       PRES   REMARKS
IMPERIAL       LGT SNOW  33  32  96 N10       29.92R FOG     WCI  25
OGALLALA       RAIN      36  34  92 NE12      29.94R WCI  28
NORTH PLATTE   LGT RAIN  40  37  89 NE13      29.90S WCI  32
MCCOOK         HVY RAIN  41  39  93 N6        29.89R FOG
LEXINGTON      CLOUDY    42  38  87 NE22G30   29.87F
STAPLETON        N/A     38  36  94 NE9         N/A  WCI  31
GOTHENBURG       N/A     42  37  82 NE9         N/A
CALLAWAY         N/A     40  38  93 E14         N/A  WCI  32
$$

...OBSERVATIONS IN CENTRAL LINCOLN COUNTY AREA...

CITY           SKY/WX    TMP DP  RH WIND       PRES   REMARKS
N.P. AIRPORT   LGT RAIN  40  37  89 NE13      29.90S WCI  32
N.P. DOWNTOWN    N/A     39  37  92 NE12G20     N/A  WCI  32
N.P. SOUTHEAST   N/A     39  37  91 NE6G15      N/A  WCI  35
N.P. HILLCREST   N/A     39  37  93 E14G21      N/A  WCI  31
$$

...SOME OBSERVATIONS FROM AROUND THE REGION...

CITY           SKY/WX    TMP DP  RH WIND       PRES   REMARKS
DENVER         LGT SNOW  33  29  85 N7        29.89F VSB 1   WCI  27
LARAMIE        LGT SNOW  30  28  92 E3        29.88S VSB 1
CHEYENNE       LGT SNOW  32  31  96 N8        29.89F VSB 1   WCI  25
SCOTTSBLUFF    LGT RAIN  37  34  89 NE5       29.95F FOG     WCI  33
RAPID CITY     CLOUDY    43  36  76 E9        30.03R
BISMARCK       CLEAR     58  33  39 E10       30.09F
PIERRE         CLOUDY    49  38  65 SE9       30.04S
SIOUX FALLS    CLOUDY    48  38  68 E10       30.03F
OMAHA          CLOUDY    49  42  77 NE10      29.97R
GRAND ISLAND   CLOUDY    43  39  86 E18       29.92S
KANSAS CITY    CLOUDY    51  48  89 NE20      29.81F
WICHITA        CLOUDY    56  52  86 E20G26    29.66F
OKLAHOMA CITY  CLOUDY    62  61  96 N13       29.60R FOG
DALLAS         CLOUDY    75  69  81 SE8       29.56R
AMARILLO       CLEAR     53  44  71 NW14      29.78R
DODGE CITY     CLOUDY    44  43  96 N7        29.80S FOG
HAYS           CLOUDY    46  37  71 E9        29.77S
GOODLAND       LGT SNOW  32  32 100 N10       29.86F VSB 3/4 WCI  24
$$




USA.gov is the U.S. government's official web portal to all federal, state and local government web resources and services.